Location: Unspecified
(0.0000°N, 0.0000°E)
Time: 13:58:36
(UTC+02:00)

Cosmos 1295 Rocket - Visible Passes

Search period start: 23 July 2014 00:00
Search period end: 02 August 2014 00:00
Orbit: 943 x 995 km, 82.9° (Epoch: 21 July)

Date Brightness Start Highest point End Pass type
(mag) Time Alt. Az. Time Alt. Az. Time Alt. Az.
29 Jul 6.8 22:24:41 10° NNE 22:24:51 11° NNE 22:24:51 11° NNE visible
30 Jul 6.6 22:47:37 10° N 22:48:44 16° N 22:48:44 16° N visible
31 Jul 6.7 23:11:20 10° NNW 23:12:39 17° NNW 23:12:39 17° NNW visible
01 Aug 6.3 21:50:41 10° NNE 21:52:04 16° NE 21:52:04 16° NE visible
01 Aug 7.1 23:35:58 10° NW 23:36:38 13° NW 23:36:38 13° NW visible
